When you browse on this site, cookies collect data to enhance your experience and personalize the content and advertising you see.
Visit our Privacy Policy to learn more. By continuing to use the site, you agree to this use of cookies and data.
  • In France
  • List of Countries
  • For 7 days
  • Water Temperature
  • Satellite Maps
  • Weather Map
  • Weather Widgets
  • user-avatar
    Login

    Hourly Weather Hotovan

    Today, 18 February, Monday

    Time Temperature Precipitation Wind Pressure Humidity
    00:00 -4°C° 0 mm 3 mps 757 mmHg 82%
    01:00 -5°C° 0 mm 3 mps 757 mmHg 84%
    02:00 -5°C° 0 mm 2 mps 758 mmHg 90%
    03:00 -6°C° 0 mm 2 mps 758 mmHg 91%
    04:00 -6°C° 0 mm 2 mps 758 mmHg 92%
    05:00 -7°C° 0 mm 2 mps 759 mmHg 94%
    06:00 -6°C° 0 mm 1 mps 759 mmHg 93%
    07:00 -6°C° 0 mm 1 mps 760 mmHg 93%
    08:00 -6°C° 0 mm 1 mps 760 mmHg 93%
    09:00 -4°C° 0 mm 1 mps 761 mmHg 87%
    10:00 -2°C° 0 mm 1 mps 761 mmHg 81%
    11:00 -2°C° 0 mm 0 mps 761 mmHg 75%
    12:00 0°C° 0 mm 1 mps 761 mmHg 72%
    13:00 0°C° 0 mm 1 mps 761 mmHg 69%
    14:00 +1°C° 0 mm 1 mps 761 mmHg 67%
    15:00 0°C° 0 mm 1 mps 760 mmHg 71%
    16:00 -3°C° 0 mm 2 mps 760 mmHg 76%
    17:00 -4°C° 0 mm 2 mps 760 mmHg 81%
    18:00 -4°C° 0 mm 2 mps 759 mmHg 80%
    19:00 -5°C° 0 mm 3 mps 759 mmHg 79%
    20:00 -5°C° 0 mm 3 mps 759 mmHg 78%
    21:00 -5°C° 0 mm 3 mps 758 mmHg 76%
    22:00 -4°C° 0 mm 4 mps 757 mmHg 75%
    23:00 -4°C° 0 mm 4 mps 757 mmHg 74%

    Tomorrow, 19 February, Tuesday

    Time Temperature Precipitation Wind Pressure Humidity
    00:00 -4°C° 0 mm 4 mps 756 mmHg 76%
    01:00 -4°C° 0 mm 4 mps 756 mmHg 77%
    02:00 -4°C° 0 mm 5 mps 755 mmHg 79%
    03:00 -4°C° 0 mm 5 mps 755 mmHg 82%
    04:00 -2°C° 0 mm 5 mps 754 mmHg 85%
    05:00 -2°C° 0 mm 5 mps 754 mmHg 88%
    06:00 -2°C° 0 mm 5 mps 753 mmHg 88%
    07:00 -1°C° 0 mm 5 mps 753 mmHg 88%
    08:00 -1°C° 0 mm 5 mps 752 mmHg 88%
    09:00 -1°C° 0 mm 5 mps 752 mmHg 87%
    10:00 0°C° 0 mm 5 mps 751 mmHg 87%
    11:00 0°C° 0 mm 4 mps 751 mmHg 87%
    12:00 0°C° 0 mm 4 mps 750 mmHg 87%
    13:00 0°C° 0 mm 4 mps 750 mmHg 87%
    14:00 +1°C° 0 mm 4 mps 749 mmHg 87%
    15:00 0°C° 0 mm 4 mps 749 mmHg 87%
    16:00 0°C° 0 mm 4 mps 748 mmHg 87%
    17:00 0°C° 0 mm 4 mps 747 mmHg 88%
    18:00 0°C° 0 mm 4 mps 747 mmHg 88%
    19:00 0°C° 0 mm 4 mps 746 mmHg 88%
    20:00 0°C° 0 mm 4 mps 745 mmHg 89%
    21:00 0°C° 0 mm 5 mps 744 mmHg 89%
    22:00 0°C° 0 mm 5 mps 744 mmHg 89%
    23:00 +1°C° 0 mm 5 mps 743 mmHg 89%

    Day after tomorrow, 20 February, Wednesday

    Time Temperature Precipitation Wind Pressure Humidity
    00:00 +1°C° 0.3 mm 5 mps 742 mmHg 89%
    01:00 +1°C° 0.3 mm 5 mps 742 mmHg 88%
    02:00 +1°C° 0.3 mm 5 mps 742 mmHg 88%
    03:00 +1°C° 0.1 mm 5 mps 741 mmHg 89%
    04:00 +1°C° 0.1 mm 5 mps 741 mmHg 90%
    05:00 +1°C° 0.1 mm 4 mps 741 mmHg 90%
    06:00 +1°C° 0.1 mm 4 mps 741 mmHg 89%
    07:00 +1°C° 0.1 mm 5 mps 741 mmHg 88%
    08:00 +1°C° 0.1 mm 5 mps 741 mmHg 87%
    09:00 +1°C° 0.1 mm 5 mps 741 mmHg 85%
    10:00 +1°C° 0.1 mm 5 mps 741 mmHg 84%
    11:00 +1°C° 0.1 mm 5 mps 741 mmHg 82%
    12:00 +1°C° 0 mm 5 mps 741 mmHg 82%
    13:00 +1°C° 0 mm 5 mps 741 mmHg 82%
    14:00 +1°C° 0 mm 5 mps 741 mmHg 82%
    15:00 +1°C° 0.3 mm 5 mps 741 mmHg 82%
    16:00 +1°C° 0.3 mm 5 mps 741 mmHg 83%
    17:00 0°C° 0.3 mm 5 mps 741 mmHg 84%
    18:00 0°C° 0.2 mm 5 mps 741 mmHg 81%
    19:00 -2°C° 0.2 mm 6 mps 742 mmHg 78%
    20:00 -3°C° 0.2 mm 6 mps 742 mmHg 74%
    21:00 -4°C° 0.1 mm 6 mps 743 mmHg 75%
    22:00 -4°C° 0.1 mm 6 mps 743 mmHg 75%
    23:00 -5°C° 0.1 mm 6 mps 744 mmHg 75%

    21 February, Thursday

    Time Temperature Precipitation Wind Pressure Humidity
    00:00 -5°C° 0.1 mm 6 mps 745 mmHg 74%
    01:00 -6°C° 0.1 mm 6 mps 745 mmHg 73%
    02:00 -6°C° 0.1 mm 6 mps 746 mmHg 71%
    03:00 -8°C° 0.1 mm 6 mps 746 mmHg 70%
    04:00 -8°C° 0.1 mm 6 mps 747 mmHg 69%
    05:00 -9°C° 0.1 mm 7 mps 747 mmHg 68%
    06:00 -9°C° 0.1 mm 7 mps 748 mmHg 68%
    07:00 -9°C° 0.1 mm 7 mps 748 mmHg 67%
    08:00 -9°C° 0.1 mm 7 mps 749 mmHg 66%
    09:00 -9°C° 0 mm 7 mps 750 mmHg 65%
    10:00 -9°C° 0 mm 7 mps 751 mmHg 64%
    11:00 -8°C° 0 mm 7 mps 752 mmHg 63%
    12:00 -8°C° 0 mm 7 mps 752 mmHg 62%
    13:00 -8°C° 0 mm 6 mps 753 mmHg 62%
    14:00 -8°C° 0 mm 6 mps 754 mmHg 62%
    15:00 -8°C° 0 mm 6 mps 755 mmHg 63%
    16:00 -9°C° 0 mm 6 mps 756 mmHg 65%
    17:00 -8°C° 0 mm 5 mps 757 mmHg 66%
    18:00 -8°C° 0 mm 5 mps 758 mmHg 66%
    19:00 -10°C° 0 mm 5 mps 759 mmHg 66%
    20:00 -10°C° 0 mm 5 mps 760 mmHg 66%
    21:00 -10°C° 0 mm 5 mps 761 mmHg 67%
    22:00 -11°C° 0 mm 5 mps 761 mmHg 67%
    23:00 -10°C° 0 mm 4 mps 762 mmHg 68%

    22 February, Friday

    Time Temperature Precipitation Wind Pressure Humidity
    00:00 -10°C° 0 mm 4 mps 763 mmHg 70%
    01:00 -10°C° 0 mm 4 mps 764 mmHg 73%
    02:00 -10°C° 0 mm 3 mps 764 mmHg 75%
    03:00 -10°C° 0 mm 3 mps 765 mmHg 75%
    04:00 -10°C° 0 mm 3 mps 766 mmHg 76%
    05:00 -10°C° 0 mm 3 mps 766 mmHg 76%
    06:00 -10°C° 0 mm 3 mps 767 mmHg 77%
    07:00 -10°C° 0 mm 3 mps 767 mmHg 78%
    08:00 -10°C° 0 mm 3 mps 768 mmHg 79%
    09:00 -10°C° 0 mm 3 mps 769 mmHg 75%
    10:00 -8°C° 0 mm 2 mps 769 mmHg 72%
    11:00 -7°C° 0 mm 2 mps 770 mmHg 68%
    12:00 -6°C° 0 mm 2 mps 770 mmHg 64%
    13:00 -5°C° 0 mm 2 mps 770 mmHg 60%
    14:00 -4°C° 0 mm 2 mps 771 mmHg 56%
    15:00 -5°C° 0 mm 2 mps 771 mmHg 60%
    16:00 -5°C° 0 mm 2 mps 771 mmHg 64%
    17:00 -6°C° 0 mm 2 mps 771 mmHg 68%
    18:00 -6°C° 0 mm 2 mps 771 mmHg 70%
    19:00 -6°C° 0 mm 2 mps 771 mmHg 72%
    20:00 -7°C° 0 mm 2 mps 771 mmHg 75%
    21:00 -7°C° 0 mm 2 mps 771 mmHg 72%
    22:00 -7°C° 0 mm 2 mps 770 mmHg 69%
    23:00 -8°C° 0 mm 3 mps 770 mmHg 67%

    23 February, Saturday

    Time Temperature Precipitation Wind Pressure Humidity
    00:00 -7°C° 0 mm 3 mps 769 mmHg 65%
    01:00 -7°C° 0 mm 3 mps 769 mmHg 63%
    02:00 -6°C° 0 mm 3 mps 768 mmHg 60%
    03:00 -7°C° 0.3 mm 4 mps 767 mmHg 70%
    04:00 -7°C° 0.3 mm 4 mps 766 mmHg 79%
    05:00 -7°C° 0.3 mm 4 mps 765 mmHg 89%
    06:00 -7°C° 1 mm 4 mps 764 mmHg 90%
    07:00 -7°C° 1 mm 4 mps 763 mmHg 91%
    08:00 -7°C° 1 mm 5 mps 762 mmHg 92%
    09:00 -5°C° 0.6 mm 4 mps 761 mmHg 91%
    10:00 -5°C° 0.6 mm 4 mps 760 mmHg 90%
    11:00 -4°C° 0.6 mm 4 mps 759 mmHg 89%
    12:00 -3°C° 0.1 mm 4 mps 758 mmHg 90%
    13:00 -1°C° 0.1 mm 3 mps 758 mmHg 92%
    14:00 0°C° 0.1 mm 3 mps 757 mmHg 93%
    15:00 +1°C° 0.1 mm 3 mps 757 mmHg 94%
    16:00 0°C° 0.1 mm 4 mps 757 mmHg 94%
    17:00 +1°C° 0.1 mm 4 mps 756 mmHg 94%
    18:00 +1°C° 0 mm 4 mps 757 mmHg 95%
    19:00 +2°C° 0 mm 3 mps 757 mmHg 95%
    20:00 +1°C° 0 mm 3 mps 757 mmHg 96%
    21:00 +1°C° 0 mm 3 mps 758 mmHg 96%
    22:00 0°C° 0 mm 3 mps 758 mmHg 95%
    23:00 +1°C° 0 mm 2 mps 758 mmHg 95%
    Show more